• In Czech Republic
  • List of Countries
  • For 7 days
  • Water Temperature
  • Satellite Maps
  • Weather Map
  • Weather Widgets
  • user-avatar
    Login

    Hourly Weather Honolulu

    Today, 11 December, Monday

    Time Temperature Precipitation Wind Pressure Humidity
    00:00 +24°C° 0.1 mm 2 mps 760 mmHg 93%
    01:00 +23°C° 0.1 mm 1 mps 760 mmHg 94%
    02:00 +23°C° 0 mm 1 mps 760 mmHg 95%
    03:00 +23°C° 0 mm 1 mps 760 mmHg 95%
    04:00 +23°C° 0 mm 1 mps 759 mmHg 96%
    05:00 +23°C° 0 mm 1 mps 760 mmHg 94%
    06:00 +24°C° 0 mm 1 mps 760 mmHg 92%
    07:00 +24°C° 0 mm 2 mps 760 mmHg 90%
    08:00 +26°C° 0 mm 2 mps 760 mmHg 82%
    09:00 +27°C° 0 mm 3 mps 760 mmHg 73%
    10:00 +28°C° 0 mm 3 mps 760 mmHg 65%
    11:00 +28°C° 0.1 mm 3 mps 760 mmHg 65%
    12:00 +28°C° 0.1 mm 3 mps 759 mmHg 65%
    13:00 +28°C° 0.1 mm 3 mps 759 mmHg 65%
    14:00 +28°C° 0.1 mm 4 mps 759 mmHg 68%
    15:00 +27°C° 0.1 mm 4 mps 759 mmHg 71%
    16:00 +27°C° 0.1 mm 4 mps 759 mmHg 73%
    17:00 +26°C° 0 mm 4 mps 759 mmHg 76%
    18:00 +25°C° 0 mm 4 mps 759 mmHg 79%
    19:00 +23°C° 0 mm 4 mps 760 mmHg 82%
    20:00 +23°C° 0 mm 4 mps 760 mmHg 84%
    21:00 +23°C° 0 mm 4 mps 760 mmHg 85%
    22:00 +23°C° 0 mm 4 mps 760 mmHg 87%
    23:00 +23°C° 0 mm 5 mps 760 mmHg 87%

    Tomorrow, 12 December, Tuesday

    Time Temperature Precipitation Wind Pressure Humidity
    00:00 +23°C° 0 mm 5 mps 759 mmHg 87%
    01:00 +23°C° 0 mm 5 mps 759 mmHg 88%
    02:00 +23°C° 0 mm 5 mps 759 mmHg 88%
    03:00 +23°C° 0 mm 5 mps 759 mmHg 89%
    04:00 +23°C° 0 mm 5 mps 759 mmHg 89%
    05:00 +23°C° 0 mm 5 mps 759 mmHg 87%
    06:00 +23°C° 0 mm 5 mps 759 mmHg 86%
    07:00 +25°C° 0 mm 5 mps 760 mmHg 84%
    08:00 +26°C° 0.2 mm 5 mps 760 mmHg 80%
    09:00 +27°C° 0.2 mm 5 mps 760 mmHg 76%
    10:00 +27°C° 0.2 mm 5 mps 760 mmHg 72%
    11:00 +28°C° 0.5 mm 5 mps 760 mmHg 71%
    12:00 +28°C° 0.5 mm 4 mps 759 mmHg 70%
    13:00 +28°C° 0.5 mm 4 mps 759 mmHg 69%
    14:00 +27°C° 0.5 mm 5 mps 759 mmHg 73%
    15:00 +26°C° 0.5 mm 5 mps 759 mmHg 78%
    16:00 +25°C° 0.5 mm 5 mps 759 mmHg 82%
    17:00 +24°C° 0.1 mm 6 mps 759 mmHg 82%
    18:00 +23°C° 0.1 mm 6 mps 760 mmHg 81%
    19:00 +23°C° 0.1 mm 6 mps 760 mmHg 80%
    20:00 +23°C° 0 mm 6 mps 761 mmHg 81%
    21:00 +22°C° 0 mm 6 mps 761 mmHg 82%
    22:00 +22°C° 0 mm 6 mps 761 mmHg 83%
    23:00 +21°C° 0 mm 6 mps 761 mmHg 82%

    Day after tomorrow, 13 December, Wednesday

    Time Temperature Precipitation Wind Pressure Humidity
    00:00 +21°C° 0 mm 7 mps 761 mmHg 81%
    01:00 +21°C° 0 mm 7 mps 761 mmHg 81%
    02:00 +21°C° 0 mm 7 mps 761 mmHg 80%
    03:00 +20°C° 0 mm 7 mps 761 mmHg 79%
    04:00 +20°C° 0 mm 8 mps 761 mmHg 78%
    05:00 +20°C° 0 mm 8 mps 761 mmHg 76%
    06:00 +21°C° 0 mm 7 mps 762 mmHg 74%
    07:00 +21°C° 0 mm 7 mps 762 mmHg 72%
    08:00 +22°C° 0 mm 8 mps 762 mmHg 69%
    09:00 +23°C° 0 mm 8 mps 763 mmHg 65%
    10:00 +24°C° 0 mm 8 mps 763 mmHg 61%
    11:00 +24°C° 0 mm 8 mps 762 mmHg 59%
    12:00 +24°C° 0 mm 8 mps 762 mmHg 58%
    13:00 +24°C° 0 mm 8 mps 761 mmHg 56%
    14:00 +24°C° 0 mm 8 mps 761 mmHg 59%
    15:00 +23°C° 0 mm 8 mps 761 mmHg 63%
    16:00 +22°C° 0 mm 9 mps 761 mmHg 66%
    17:00 +22°C° 0 mm 9 mps 762 mmHg 68%
    18:00 +21°C° 0 mm 9 mps 762 mmHg 70%
    19:00 +21°C° 0 mm 9 mps 763 mmHg 72%
    20:00 +21°C° 0 mm 9 mps 763 mmHg 72%
    21:00 +21°C° 0 mm 10 mps 763 mmHg 72%
    22:00 +21°C° 0 mm 10 mps 764 mmHg 72%
    23:00 +21°C° 0 mm 10 mps 763 mmHg 72%

    14 December, Thursday

    Time Temperature Precipitation Wind Pressure Humidity
    00:00 +21°C° 0 mm 11 mps 763 mmHg 71%
    01:00 +21°C° 0 mm 11 mps 763 mmHg 71%
    02:00 +21°C° 0 mm 11 mps 763 mmHg 72%
    03:00 +21°C° 0 mm 11 mps 763 mmHg 72%
    04:00 +21°C° 0 mm 11 mps 763 mmHg 73%
    05:00 +21°C° 0 mm 11 mps 763 mmHg 72%
    06:00 +21°C° 0 mm 11 mps 764 mmHg 71%
    07:00 +21°C° 0 mm 11 mps 764 mmHg 71%
    08:00 +22°C° 0 mm 11 mps 764 mmHg 67%
    09:00 +23°C° 0 mm 11 mps 764 mmHg 63%
    10:00 +24°C° 0 mm 11 mps 764 mmHg 59%
    11:00 +24°C° 0 mm 11 mps 764 mmHg 60%
    12:00 +24°C° 0 mm 11 mps 763 mmHg 61%
    13:00 +24°C° 0 mm 10 mps 762 mmHg 62%
    14:00 +24°C° 0 mm 11 mps 762 mmHg 64%
    15:00 +23°C° 0 mm 11 mps 762 mmHg 67%
    16:00 +23°C° 0 mm 11 mps 762 mmHg 69%
    17:00 +23°C° 0 mm 11 mps 763 mmHg 71%
    18:00 +22°C° 0 mm 11 mps 763 mmHg 72%
    19:00 +22°C° 0 mm 11 mps 764 mmHg 74%
    20:00 +22°C° 0 mm 11 mps 764 mmHg 73%
    21:00 +22°C° 0 mm 11 mps 764 mmHg 73%
    22:00 +22°C° 0 mm 11 mps 763 mmHg 72%
    23:00 +22°C° 0 mm 11 mps 763 mmHg 73%

    15 December, Friday

    Time Temperature Precipitation Wind Pressure Humidity
    00:00 +22°C° 0 mm 11 mps 763 mmHg 73%
    01:00 +22°C° 0 mm 11 mps 762 mmHg 74%
    02:00 +22°C° 0 mm 11 mps 762 mmHg 73%
    03:00 +22°C° 0 mm 11 mps 762 mmHg 73%
    04:00 +22°C° 0 mm 11 mps 762 mmHg 73%
    05:00 +22°C° 0 mm 10 mps 762 mmHg 73%
    06:00 +22°C° 0 mm 10 mps 762 mmHg 73%
    07:00 +22°C° 0 mm 10 mps 763 mmHg 73%
    08:00 +23°C° 0 mm 10 mps 763 mmHg 69%
    09:00 +24°C° 0 mm 10 mps 763 mmHg 66%
    10:00 +26°C° 0 mm 10 mps 762 mmHg 63%
    11:00 +26°C° 0 mm 10 mps 762 mmHg 63%
    12:00 +26°C° 0 mm 10 mps 761 mmHg 63%
    13:00 +26°C° 0 mm 10 mps 760 mmHg 62%
    14:00 +26°C° 0 mm 10 mps 760 mmHg 66%
    15:00 +24°C° 0 mm 10 mps 760 mmHg 69%
    16:00 +24°C° 0 mm 10 mps 760 mmHg 72%
    17:00 +23°C° 0 mm 9 mps 761 mmHg 75%
    18:00 +23°C° 0 mm 9 mps 761 mmHg 77%
    19:00 +23°C° 0 mm 9 mps 761 mmHg 80%
    20:00 +22°C° 0 mm 8 mps 761 mmHg 82%
    21:00 +22°C° 0 mm 8 mps 761 mmHg 84%
    22:00 +22°C° 0 mm 7 mps 761 mmHg 86%
    23:00 +22°C° 0 mm 7 mps 760 mmHg 86%

    16 December, Saturday

    Time Temperature Precipitation Wind Pressure Humidity
    00:00 +22°C° 0 mm 7 mps 760 mmHg 87%
    01:00 +22°C° 0 mm 6 mps 760 mmHg 87%
    02:00 +22°C° 0 mm 6 mps 759 mmHg 87%
    03:00 +22°C° 0 mm 6 mps 759 mmHg 87%
    04:00 +22°C° 0 mm 6 mps 759 mmHg 87%
    05:00 +22°C° 0 mm 6 mps 759 mmHg 86%
    06:00 +22°C° 0 mm 6 mps 759 mmHg 85%
    07:00 +23°C° 0 mm 6 mps 760 mmHg 84%
    08:00 +23°C° 0.1 mm 6 mps 759 mmHg 80%
    09:00 +25°C° 0.1 mm 5 mps 759 mmHg 76%
    10:00 +26°C° 0.1 mm 5 mps 759 mmHg 72%
    11:00 +26°C° 0.2 mm 5 mps 759 mmHg 71%
    12:00 +27°C° 0.2 mm 5 mps 758 mmHg 70%
    13:00 +27°C° 0.2 mm 5 mps 757 mmHg 69%
    14:00 +26°C° 0 mm 5 mps 757 mmHg 70%
    15:00 +26°C° 0 mm 5 mps 757 mmHg 71%
    16:00 +26°C° 0 mm 5 mps 757 mmHg 72%
    17:00 +25°C° 0 mm 5 mps 758 mmHg 76%
    18:00 +23°C° 0 mm 4 mps 758 mmHg 80%
    19:00 +23°C° 0 mm 4 mps 758 mmHg 84%
    20:00 +22°C° 0 mm 4 mps 758 mmHg 85%
    21:00 +22°C° 0 mm 3 mps 758 mmHg 86%
    22:00 +22°C° 0 mm 3 mps 758 mmHg 87%
    23:00 +22°C° 0 mm 3 mps 758 mmHg 88%
    Show more